Showing default

CUAVA-2, 60527

Orbit data source: Space-Track

CUAVA-2, 60527 is an Australian payload satellite in SSO that was launched on Fri, 16 Aug 2024 UTC via an FALCON 9 launch vehicle from the Air Force Western Test Range (AFWTR). Payload-class satellites include a variety of spacecraft equipped with specific instruments for various scientific and technological missions. These include communications satellites like Starlink; space stations such as the ISS; scientific satellites like the Hubble; Earth observation satellites from companies like Planet Labs, Umbra, and HawkEye 360; GPS; miniature CubeSats for education and research; and military/defense satellites.

Loading next visibility...
Identifier
60527, 2024-149BM
Orbit
SSO
Country
Flag of AUAU / AUS
Related business
Manufacturer
USYD/UNSW
Mission
Operational Amateur Technology
Bus & Motor
CUBESAT 6U, Unknown motor
Mass
10 kg wet, 10 kg dry
Launch date (UTC)
2024-08-16 (1 year ago)
Launch vehicle
FALCON 9
Launch site
Air Force Western Test Range (AFWTR)
Object type
Payload
Rocket body
Debris
Shape & HBR
Box, 0.1 m
Radar Cross Section
0.080 m², Medium (>0.1 m² and < 1m²)

Expand to show TLE details & history
Last TLE update: 23 hours ago

TLE from 23 hours ago
0 CUAVA-2
1 60527U 24149BM  25338.63772400  .00027404  00000-0  92454-3 0  9994
2 60527  97.3927  55.4122 0006174 267.7653  92.2881 15.30656614 72356
Epoch: 2025-12-04T15:18Z
TLE epoch observation values (Epoch: 2025-12-04T15:18:19.353Z)
Latitude
-0.00003°
Longitude
112.14026°
Altitude
477.129 km
Speed
7.627 km/s
True Right ascension
03h 41m 38s
True Declination
0° 00' 00"
Sunlit
Object was in full shadow at epoch
Visualization orbit readout
Latitude
Unknown
Longitude
Unknown
Altitude
Unknown
Speed
Unknown
Apparent Right ascension
Unknown
Apparent Declination
Unknown
Sunlit
N/A
Visualization observer readout
Local Sidereal Time
12:14:50
Azimuth
Unknown
Elevation
Unknown
Doppler factor
Unknown
Orbital elements
Apogee altitude
475.032 km
Perigee altitude
466.575 km
Semi-major axis
6,848.94 km
Eccentricity
0.00062
Inclination
97.3927°
RAAN
55.4122°
Arg. of periapsis
267.7653°
True anomaly
92.35879°
Mean anomaly
92.2881°
Eccentric anomaly
92.32345°
Mean motion
3.8292 °/min
Orbital period
94.01 mins
BSTAR
0.00092454
Loading maneuver chart data...
Computing Atmospheric mass density...
Loading historical data...
Loading historical data...
Loading historical data...
Loading historical data...
Loading historical data...
Loading historical data...
Loading historical data...

Documentation

Showing up to 5 results
|